TimeEST,TemperatureF,Dew PointF,Humidity,Sea Level PressureIn,VisibilityMPH,Wind Direction,Wind SpeedMPH,Gust SpeedMPH,PrecipitationIn,Events,Conditions,WindDirDegrees,DateUTC
12:56 AM,64.9,48.9,56,30.05,10.0,South,17.3,25.3,N/A,,Overcast,170,2012-11-12 05:56:00
1:56 AM,64.0,51.1,63,30.04,10.0,South,18.4,27.6,0.00,Rain,Light Rain,180,2012-11-12 06:56:00
2:56 AM,61.0,53.1,75,30.02,10.0,South,17.3,25.3,0.05,Rain,Light Rain,170,2012-11-12 07:56:00
3:56 AM,60.1,54.0,80,30.00,10.0,South,11.5,-,0.03,Rain,Light Rain,170,2012-11-12 08:56:00
4:56 AM,60.1,55.0,83,30.02,4.0,South,9.2,-,0.05,Rain,Rain,190,2012-11-12 09:56:00
5:56 AM,59.0,55.9,90,30.03,7.0,South,10.4,-,0.06,Rain,Light Rain,190,2012-11-12 10:56:00
6:02 AM,59.0,55.4,88,30.04,4.0,South,9.2,-,0.00,Rain,Light Rain,190,2012-11-12 11:02:00
6:56 AM,60.1,55.9,86,30.03,6.0,SSW,17.3,32.2,0.11,Rain,Rain,210,2012-11-12 11:56:00
7:23 AM,53.6,51.8,94,30.05,7.0,WNW,19.6,28.8,0.03,Rain,Light Rain,290,2012-11-12 12:23:00
7:37 AM,53.6,51.8,94,30.05,10.0,West,10.4,-,0.04,Rain,Light Rain,280,2012-11-12 12:37:00
7:56 AM,54.0,51.1,90,30.08,10.0,West,10.4,-,0.04,Rain,Light Rain,270,2012-11-12 12:56:00
8:07 AM,53.6,51.8,94,30.09,2.5,West,11.5,-,0.00,Rain,Light Rain,270,2012-11-12 13:07:00
8:33 AM,53.6,51.8,94,30.10,9.0,West,11.5,-,0.02,Rain,Light Rain,270,2012-11-12 13:33:00
8:47 AM,53.6,51.8,94,30.12,8.0,West,10.4,-,0.03,Rain,Light Rain,270,2012-11-12 13:47:00
8:56 AM,53.1,51.1,93,30.12,4.0,WNW,12.7,20.7,0.03,Rain,Rain,290,2012-11-12 13:56:00
9:21 AM,48.2,46.4,93,30.13,5.0,WNW,19.6,26.5,0.03,Rain,Rain,290,2012-11-12 14:21:00
9:56 AM,46.9,44.1,90,30.17,9.0,WNW,15.0,23.0,0.05,Rain,Light Rain,300,2012-11-12 14:56:00
10:05 AM,44.6,42.8,93,30.17,7.0,NW,18.4,27.6,0.01,Rain,Light Rain,310,2012-11-12 15:05:00
10:48 AM,42.8,39.2,87,30.20,6.0,WNW,17.3,27.6,0.01,Rain,Light Rain,300,2012-11-12 15:48:00
10:56 AM,43.0,39.0,86,30.21,6.0,WNW,13.8,23.0,0.02,Rain,Light Rain,290,2012-11-12 15:56:00
11:31 AM,42.8,39.2,87,30.21,9.0,NW,11.5,-,0.01,Rain,Light Rain,320,2012-11-12 16:31:00
11:56 AM,42.1,39.0,89,30.22,10.0,NW,12.7,18.4,0.02,Rain,Light Rain,320,2012-11-12 16:56:00
12:47 PM,39.2,35.6,87,30.24,10.0,West,17.3,-,0.01,Rain,Light Rain,280,2012-11-12 17:47:00
12:56 PM,39.9,34.0,79,30.25,10.0,WNW,16.1,24.2,0.01,,Mostly Cloudy,290,2012-11-12 17:56:00
1:12 PM,39.2,32.0,75,30.24,10.0,WNW,15.0,-,N/A,,Mostly Cloudy,300,2012-11-12 18:12:00
1:56 PM,42.1,34.0,73,30.25,10.0,West,13.8,-,N/A,,Mostly Cloudy,270,2012-11-12 18:56:00
2:56 PM,46.0,33.1,61,30.27,10.0,West,15.0,21.9,N/A,,Scattered Clouds,280,2012-11-12 19:56:00
3:56 PM,44.1,28.9,55,30.30,10.0,West,15.0,-,N/A,,Partly Cloudy,280,2012-11-12 20:56:00
4:56 PM,43.0,26.1,51,30.32,10.0,West,9.2,-,N/A,,Partly Cloudy,280,2012-11-12 21:56:00
5:56 PM,39.0,25.0,57,30.33,10.0,West,6.9,-,N/A,,Partly Cloudy,270,2012-11-12 22:56:00
6:56 PM,37.9,25.0,60,30.36,10.0,West,6.9,-,N/A,,Clear,270,2012-11-12 23:56:00
7:56 PM,36.0,25.0,64,30.40,10.0,West,6.9,-,N/A,,Partly Cloudy,280,2012-11-13 00:56:00
8:56 PM,35.1,25.0,67,30.41,10.0,West,8.1,-,N/A,,Partly Cloudy,270,2012-11-13 01:56:00
9:56 PM,36.0,25.0,64,30.43,10.0,West,5.8,-,N/A,,Partly Cloudy,270,2012-11-13 02:56:00
10:56 PM,35.1,25.0,67,30.44,10.0,ESE,4.6,-,N/A,,Partly Cloudy,110,2012-11-13 03:56:00
11:56 PM,36.0,25.0,64,30.45,10.0,Calm,Calm,-,N/A,,Clear,0,2012-11-13 04:56:00